Main page
Satellite images Climate Cyclones Lightning AirportsFAQ Languages Contact Newsletter About
Weather : Europe Africa North America South America Asia Australia-Oceania Others

, Penang, Penang International Airport

48601

latitude: , longitude: Malaysia, elevation: 05-18N m


METAR: WMKP 241300Z VRB02KT 9000 FEW025 BKN140 BKN270 27/24 Q1010 NOSIG